Regional Weather Roundup
Issued by NWS

Home | Current Version | Previous Version | Graphics & Text | Print | Product List | Glossary Off
Versions: 1 2 3 4 5 6 7 8 9 10 11 12 13 14 15 16 17 18 19 20 21 22 23 24 25 26 27 28 29 30 31 32 33 34 35 36 37 38 39 40 41 42 43 44 45 46 47 48 49 50

000
ASUS43 KMKX 230100
RWRWI

WISCONSIN REGIONAL WEATHER ROUNDUP
NATIONAL WEATHER SERVICE MILWAUKEE/SULLIVAN WI
700 PM CST MON DEC 22 2014

NOTE: "FAIR" INDICATES FEW OR NO CLOUDS BELOW 12,000 FEET WITH NO
SIGNIFICANT WEATHER AND/OR OBSTRUCTIONS TO VISIBILITY.

WIZ001-002-006>008-014>016-023>028-230200-
NORTHWEST WISCONSIN

CITY           SKY/WX    TMP DP  RH WIND       PRES   REMARKS
SUPERIOR ARPT  CLOUDY    35  34  94 E7        29.74R FOG     WCI  30
ASHLAND        CLOUDY    34  32  92 NE5       29.75S WCI  30
HAYWARD        CLOUDY    35  31  85 CALM      29.70R
SIREN          CLOUDY    35  33  92 E5        29.68S FOG     WCI  31
CUMBERLAND     CLOUDY    34  32  93 E9        29.66S WCI  26
RICE LAKE      CLOUDY    35  32  88 E8        29.68S WCI  29
CHETEK         CLOUDY    35  32  89 E8        29.67S WCI  28
LADYSMITH      CLOUDY    35  32  88 E8        29.71S WCI  29
EAU CLAIRE     NOT AVBL
MENOMONIE      CLOUDY    37  33  87 NE9       29.64S FOG     WCI  30
NEW RICHMOND   CLOUDY    36  34  95 E7        29.63S FOG     WCI  30
OSCEOLA        CLOUDY    37  37 100 E8        29.66S WCI  30
$$

WIZ003>005-009-010-017-018-230200-
NORTH CENTRAL WISCONSIN

CITY           SKY/WX    TMP DP  RH WIND       PRES   REMARKS
MANITOWISH WTR CLOUDY    32  32  99 SE9       29.74S WCI  25
ARBOR VITAE    CLOUDY    34  32  92 E10G17    29.74S WCI  26
WOODRUFF       CLOUDY    34  32  92 E10G17    29.74S WCI  26
RHINELANDER    CLOUDY    31  29  92 E15       29.75S FOG     WCI  20
EAGLE RIVER    CLOUDY    32  31  96 SE9       29.76R FOG     WCI  24
LAND O LAKES   CLOUDY    32  31  97 SE12G17   29.77S FOG     WCI  23
PHILLIPS       CLOUDY    33  31  93 E9        29.71S WCI  25
TOMAHAWK       CLOUDY    32  30  92 E3        29.74S FOG
MEDFORD        CLOUDY    32  30  92 E15       29.69S FOG     WCI  22
MERRILL        LGT SNOW  33  32  95 E8G16     29.73S WCI  26
$$

WIZ029-030-035-036-043>047-230200-
CENTRAL WISCONSIN

CITY           SKY/WX    TMP DP  RH WIND       PRES   REMARKS
WAUSAU         LGT SNOW  33  31  92 E12       29.70F FOG     WCI  24
MOSINEE        NOT AVBL
MARSHFIELD     LGT SNOW  33  31  92 E14       29.67F FOG     WCI  23
STEVENS POINT  LGT SNOW  31  31  97 E14       29.71S WCI  21
WAUPACA        LGT SNOW  34  33  94 E7        29.73F WCI  28
WAUTOMA        MIX PCPN  34  34 100 E10       29.69F FOG     WCI  26
WISC RAPIDS    LGT SNOW  33  30  88 E14       29.69F FOG     WCI  23
CAMP DOUGLAS   NOT AVBL
$$

WIZ011>013-019>022-031-037>040-048>050-230200-
NORTHEAST WISCONSIN

CITY           SKY/WX    TMP DP  RH WIND       PRES   REMARKS
ANTIGO         CLOUDY    31  30  96 E15       29.74F FOG     WCI  20
SHAWANO        LGT SNOW  34  32  92 E8        29.78S VSB 1   WCI  28
OCONTO         CLOUDY    32  32 100 E6        29.81S WCI  26
STURGEON BAY   CLOUDY    34  28  80 E9        29.83S WCI  26
GREEN BAY      LGT SNOW  34  32  92 E10       29.77F FOG     WCI  26
MANITOWOC      NOT AVBL
APPLETON       LGT SNOW  34  34 100 E8        29.73F WCI  27
CLINTONVILLE   LGT SNOW  32  32 100 E7        29.76S WCI  26
OSHKOSH        LGT RAIN  34  32  92 E12       29.70F FOG     WCI  25
$$

WIZ032>034-041-042-053>061-230200-
SOUTHWEST WISCONSIN

CITY           SKY/WX    TMP DP  RH WIND       PRES   REMARKS
LA CROSSE      CLOUDY    36  33  89 E13       29.62S WCI  27
SPARTA         LGT SNOW  33  33  98 E8        29.65S WCI  27
VIROQUA        CLOUDY    33  33 100 E15       29.59S WCI  23
BOSCOBEL       CLOUDY    36  34  92 NE6       29.61F FOG     WCI  31
PRAIRIE DU CHI CLOUDY    36  34  92 E9        29.59S FOG     WCI  29
PLATTEVILLE    CLOUDY    36  35  97 E12       29.60S WCI  27
$$

WIZ056-057-062-063-064-067-068-230200-
SOUTH CENTRAL WISCONSIN

CITY           SKY/WX    TMP DP  RH WIND       PRES   REMARKS
REEDSBURG      CLOUDY    33  32  97 E7        29.64S FOG     WCI  27
BARABOO/DELLS  MIX PCPN  33  32  98 E10       29.64F WCI  24
LONE ROCK      CLOUDY    39  34  82 E14       29.63S HAZE    WCI  31
MINERAL POINT  CLOUDY    36  36 100 E8        29.59F FOG     WCI  29
MADISON        DRIZZLE   35  34  96 E9        29.64F FOG     WCI  28
MIDDLETON      CLOUDY    36  36  99 E10       29.64F WCI  28
WATERTOWN      LGT RAIN  36  36 100 E10       29.66R WCI  28
MONROE         FOG       34  34 100 E12       29.61S VSB 1/2 WCI  25
JANESVILLE     CLOUDY    37  36  93 E7        29.63F FOG     WCI  32
$$

WIZ051-052-058>065-066-070>072-230200-
SOUTHEAST WISCONSIN

CITY           SKY/WX    TMP DP  RH WIND       PRES   REMARKS
MILWAUKEE      LGT RAIN  38  36  92 SE18      29.70F FOG     WCI  28
WAUKESHA       LGT RAIN  36  36 100 E12G23    29.68F FOG     WCI  27
MILWAUKEE/TIMM LGT RAIN  37  36  93 SE12G17   29.71F FOG     WCI  30
RACINE         LGT RAIN  39  37  92 SE10      29.72F FOG     WCI  32
BURLINGTON     MIX PCPN  36  35  99 E13G18    29.66F WCI  27
KENOSHA        LGT RAIN  39  38  96 SE13      29.68F FOG     WCI  31
FOND DU LAC    LGT RAIN  36  33  89 SE14G24   29.70F WCI  27
SHEBOYGAN      LGT RAIN  37  32  82 E14G20    29.74F WCI  28
WEST BEND      LGT RAIN  36  34  93 E13       29.71S WCI  27
JUNEAU         LGT RAIN  35  34  95 E16G24    29.67F WCI  25
$$

LSZ147-162-230200-
LAKE SUPERIOR

STATION/POSITION TIME  TEMP    WIND        PRES    WAVE
                       AIR SEA DIR/SP/G            HT/PER
                 (UTC) (F)     (DEG/KT/KT) (MB)    (FT/S)
DEVILS ISLAND    0000   36      70/ 10/ 10 1008.6R
PORT WING        0040   34      40/  7/ 10 1007.5S
SAXON HARBOR     0000   38        CALM     1007.8R
$$

LMZ867-665-643>646-230200-
LAKE MICHIGAN

STATION/POSITION TIME  TEMP    WIND        PRES    WAVE
                       AIR SEA DIR/SP/G            HT/PER
                 (UTC) (F)     (DEG/KT/KT) (MB)    (FT/S)
CHAMBERS ISLAND  0000   37      90/  6/ 17 1010.8S
NORTHPORT PIER   0006   37     120/ 17/ 25 1010.8F
SISTER BAY       0013          130/ 13/ 18   N/A
ALGOMA LAKESHORE 0015          120/ 18/ 21   N/A
KEWAUNEE LAKESHO 0000   35     110/ 12/ 18 1008.7F
SHEBOYGAN LAKESH 0000   37 37  110/ 23/ 26 1008.0F
PORT WASHINGTON  0020   39     140/ 15/ 23 1007.8F
MILWAUKEE LAKESH 0000   38     120/ 18/ 22   N/A
KENOSHA   LAKESH 0000   38     140/ 16/ 19 1006.1F
$$

TC  - TEMPERATURE IN CELSIUS
VSB - VISIBILITY IN STATUTE MILES
WCI - WIND CHILL INDEX
HX  - HEAT INDEX




USA.gov is the U.S. government's official web portal to all federal, state and local government web resources and services.